Date String (YYYY-MM-DD hh:mm:ss) UTC,Instrument flags,absolute air pressure of the measurement (hPa),sample flow rate (lpm),inlet stack bypass flow (lpm),air temperature of the measurement (°C),ambient temperature measured by the external sensor (°C),aerosol sample conditioner tube jacket temperature (°C),OPC LED temperature (°C),internal box temperature (°C),relative humidity of the measurement (%),span deviation,mass concentration of particles derived from Lorenz-Mie calculation of OPC scattering (μg/m³),mass concentration of particles derived from Lorenz-Mie calculation of OPC scattering (μg/m³),mass concentration of particles derived from Lorenz-Mie calculation of OPC scattering (μg/m³)
DateTimeUTC,F1_M11,P_M11,Q1_M11,Q2_M11,T1_M11,T2_M11,T3_M11,T4_M11,T5_M11,U1_M11,ZSPAN_M11,X2_M11,X0_M11,X1_M11
2023-11-26 17:00:00,SystemResetWarning,0833.1,4.99,000.00,019.5,018.9,000.0,027.6,020.7,11.7,0000.0,0002.25,0004.70,0001.95
2023-11-26 17:01:00,SystemResetWarning,0833.0,5.00,000.00,019.5,018.9,000.0,027.6,020.8,11.5,0000.0,0002.28,0004.77,0001.95
2023-11-26 17:02:00,SystemResetWarning,0833.0,4.99,000.00,019.5,018.9,000.0,027.6,020.8,11.3,0000.0,0002.34,0004.87,0001.99
2023-11-26 17:03:00,SystemResetWarning,0833.0,5.00,000.00,019.5,018.9,000.0,027.6,020.7,11.0,0000.0,0002.35,0004.82,0002.03
2023-11-26 17:04:00,SystemResetWarning,0833.1,5.01,000.00,019.5,019.0,000.0,027.7,020.7,11.0,0000.0,0002.43,0004.99,0002.07
2023-11-26 17:05:00,SystemResetWarning,0833.0,5.00,000.00,019.5,019.0,000.0,027.7,020.8,10.8,0000.0,0002.49,0005.08,0002.12
2023-11-26 17:06:00,SystemResetWarning,0833.0,4.99,000.00,019.5,019.0,000.0,027.7,020.9,11.1,0000.0,0002.49,0005.02,0002.14
2023-11-26 17:07:00,SystemResetWarning,0833.1,4.99,000.00,019.6,019.0,000.0,027.7,020.9,11.0,0000.0,0002.53,0005.09,0002.17
2023-11-26 17:08:00,SystemResetWarning,0833.1,5.00,000.00,019.6,019.1,000.0,027.7,020.9,10.8,0000.0,0002.51,0004.14,0002.17
2023-11-26 17:09:00,SystemResetWarning,0833.1,5.00,000.00,019.6,019.1,000.0,027.7,021.0,11.0,0000.0,0002.49,0003.16,0002.17
2023-11-26 17:10:00,SystemResetWarning,0833.0,5.01,000.00,019.6,019.1,000.0,027.7,021.0,10.7,0000.0,0002.49,0003.26,0002.16
2023-11-26 17:11:00,SystemResetWarning,0833.0,5.01,000.00,019.7,019.2,000.0,027.8,021.0,10.7,0000.0,0002.47,0003.24,0002.15
2023-11-26 17:12:00,SystemResetWarning,0833.0,4.99,000.00,019.7,019.2,000.0,027.8,021.0,10.7,0000.0,0002.42,0003.12,0002.14
2023-11-26 17:13:00,SystemResetWarning,0833.0,4.99,000.00,019.7,019.2,000.0,027.8,021.0,10.4,0000.0,0002.38,0003.03,0002.12
2023-11-26 17:14:00,SystemResetWarning,0833.0,5.00,000.00,019.7,019.2,000.0,027.8,021.1,10.7,0000.0,0002.37,0003.06,0002.09
2023-11-26 17:15:00,SystemResetWarning,0833.0,5.01,000.00,019.8,019.3,000.0,027.8,021.1,10.8,0000.0,0002.36,0003.13,0002.06
2023-11-26 17:16:00,SystemResetWarning,0833.0,5.01,000.00,019.8,019.3,000.0,027.9,021.1,10.9,0000.0,0002.32,0003.12,0002.02
2023-11-26 17:17:00,SystemResetWarning,0833.0,5.00,000.00,019.8,019.3,000.0,027.9,021.1,11.1,0000.0,0002.31,0003.19,0002.00
2023-11-26 17:18:00,SystemResetWarning,0833.0,4.99,000.00,019.8,019.3,000.0,027.9,021.1,10.9,0000.0,0002.30,0003.20,0001.99
2023-11-26 17:19:00,SystemResetWarning,0833.0,4.99,000.00,019.8,019.3,000.0,027.9,021.1,11.0,0000.0,0002.32,0003.36,0001.99
2023-11-26 17:20:00,SystemResetWarning,0833.0,4.99,000.00,019.9,019.4,000.0,027.9,021.2,10.9,0000.0,0002.34,0003.52,0001.99
2023-11-26 17:21:00,SystemResetWarning,0833.1,5.00,000.00,019.9,019.4,000.0,027.9,021.2,10.8,0000.0,0002.35,0003.48,0002.01
2023-11-26 17:22:00,SystemResetWarning,0833.1,5.01,000.00,019.9,019.4,000.0,028.0,021.2,10.9,0000.0,0002.37,0003.52,0002.01
2023-11-26 17:23:00,SystemResetWarning,0833.3,5.01,000.00,019.9,019.4,000.0,028.0,021.3,10.7,0000.0,0002.38,0003.50,0002.03
2023-11-26 17:24:00,SystemResetWarning,0833.3,5.00,000.00,019.9,019.5,000.0,028.0,021.3,11.0,0000.0,0002.41,0003.55,0002.05
2023-11-26 17:25:00,SystemResetWarning,0833.1,5.00,000.00,020.0,019.5,000.0,028.0,021.3,10.8,0000.0,0002.41,0003.53,0002.06
2023-11-26 17:26:00,SystemResetWarning,0833.1,5.00,000.00,020.0,019.5,000.0,028.0,021.3,10.9,0000.0,0002.38,0003.35,0002.08
2023-11-26 17:27:00,SystemResetWarning,0833.0,5.00,000.00,020.0,019.5,000.0,028.1,021.3,11.1,0000.0,0002.37,0003.26,0002.08
2023-11-26 17:28:00,SystemResetWarning,0833.3,5.00,000.00,020.0,019.5,000.0,028.1,021.4,11.2,0000.0,0002.38,0003.21,0002.08
2023-11-26 17:29:00,SystemResetWarning,0833.0,5.00,000.00,020.1,019.6,000.0,028.1,021.4,11.2,0000.0,0002.42,0003.27,0002.09
2023-11-26 17:30:00,SystemResetWarning,0833.0,5.00,000.00,020.1,019.6,000.0,028.1,021.4,11.1,0000.0,0002.43,0003.18,0002.10
2023-11-26 17:31:00,SystemResetWarning,0832.9,5.00,000.00,020.1,019.6,000.0,028.1,021.4,11.1,0000.0,0002.41,0003.01,0002.11
2023-11-26 17:32:00,SystemResetWarning,0833.3,5.00,000.00,020.1,019.6,000.0,028.2,021.5,11.1,0000.0,0002.39,0002.93,0002.11
2023-11-26 17:33:00,SystemResetWarning,0833.2,5.01,000.00,020.1,019.6,000.0,028.2,021.5,11.2,0000.0,0002.40,0002.91,0002.13
2023-11-26 17:34:00,SystemResetWarning,0832.9,5.00,000.00,020.2,019.7,000.0,028.2,021.5,11.6,0000.0,0002.44,0003.00,0002.15
2023-11-26 17:35:00,SystemResetWarning,0832.9,5.01,000.00,020.2,019.7,000.0,028.2,021.5,11.7,0000.0,0002.46,0003.00,0002.16
2023-11-26 17:36:00,SystemResetWarning,0832.8,5.00,000.00,020.2,019.7,000.0,028.2,021.6,12.0,0000.0,0002.46,0002.97,0002.17
2023-11-26 17:37:00,SystemResetWarning,0832.8,5.01,000.00,020.2,019.7,000.0,028.3,021.6,11.9,0000.0,0002.44,0002.95,0002.16
2023-11-26 17:38:00,SystemResetWarning,0832.8,5.01,000.00,020.2,019.8,000.0,028.3,021.6,11.9,0000.0,0002.46,0003.06,0002.17
2023-11-26 17:39:00,SystemResetWarning,0832.8,4.99,000.00,020.3,019.8,000.0,028.3,021.6,11.8,0000.0,0002.50,0003.12,0002.21
2023-11-26 17:40:00,SystemResetWarning,0832.9,4.99,000.00,020.3,019.8,000.0,028.3,021.6,11.7,0000.0,0002.52,0003.06,0002.26
2023-11-26 17:41:00,SystemResetWarning,0832.8,5.00,000.00,020.3,019.8,000.0,028.3,021.6,11.9,0000.0,0002.63,0003.28,0002.33
2023-11-26 17:42:00,SystemResetWarning,0832.8,5.00,000.00,020.3,019.8,000.0,028.4,021.7,11.6,0000.0,0002.75,0003.47,0002.42
2023-11-26 17:43:00,SystemResetWarning,0832.8,5.02,000.00,020.3,019.8,000.0,028.4,021.7,11.8,0000.0,0002.86,0003.60,0002.52
2023-11-26 17:44:00,SystemResetWarning,0832.8,5.00,000.00,020.4,019.9,000.0,028.4,021.7,11.4,0000.0,0002.96,0003.72,0002.61
2023-11-26 17:45:00,SystemResetWarning,0832.8,5.00,000.00,020.4,019.9,000.0,028.4,021.8,11.1,0000.0,0003.05,0003.81,0002.69
2023-11-26 17:46:00,SystemResetWarning,0832.7,4.99,000.00,020.4,019.9,000.0,028.4,021.8,11.0,0000.0,0003.11,0003.94,0002.76
2023-11-26 17:47:00,SystemResetWarning,0832.7,4.99,000.00,020.4,019.9,000.0,028.5,021.8,11.5,0000.0,0003.18,0004.28,0002.85
2023-11-26 17:48:00,SystemResetWarning,0832.7,5.00,000.00,020.5,019.9,000.0,028.5,021.8,11.2,0000.0,0003.23,0004.40,0002.93
2023-11-26 17:49:00,SystemResetWarning,0832.7,5.00,000.00,020.5,019.9,000.0,028.5,021.8,10.9,0000.0,0003.26,0004.37,0003.00
2023-11-26 17:50:00,SystemResetWarning,0832.7,5.01,000.00,020.5,020.0,000.0,028.5,021.9,10.8,0000.0,0003.26,0004.30,0003.01
2023-11-26 17:51:00,SystemResetWarning,0832.8,5.01,000.00,020.5,020.0,000.0,028.6,021.9,10.9,0000.0,0003.25,0004.31,0002.98
2023-11-26 17:52:00,SystemResetWarning,0832.8,4.99,000.00,020.5,020.0,000.0,028.6,021.9,10.9,0000.0,0003.21,0004.15,0002.94
2023-11-26 17:53:00,SystemResetWarning,0832.7,5.00,000.00,020.6,020.0,000.0,028.6,021.9,10.8,0000.0,0003.17,0004.04,0002.87
2023-11-26 17:54:00,SystemResetWarning,0832.6,5.00,000.00,020.6,020.1,000.0,028.6,021.9,10.7,0000.0,0003.15,0004.07,0002.80
2023-11-26 17:55:00,SystemResetWarning,0832.6,4.99,000.00,020.6,020.1,000.0,028.6,021.9,10.5,0000.0,0003.12,0004.04,0002.73
2023-11-26 17:56:00,SystemResetWarning,0832.7,5.00,000.00,020.6,020.1,000.0,028.7,022.0,10.5,0000.0,0003.07,0003.93,0002.67
2023-11-26 17:57:00,SystemResetWarning,0832.6,5.00,000.00,020.6,020.1,000.0,028.7,022.0,10.4,0000.0,0003.00,0003.79,0002.63
2023-11-26 17:58:00,SystemResetWarning,0832.7,5.00,000.00,020.7,020.2,000.0,028.7,022.0,9.8,0000.0,0002.91,0003.53,0002.56
2023-11-26 17:59:00,SystemResetWarning,0832.7,5.00,000.00,020.7,020.2,000.0,028.7,022.0,9.7,0000.0,0002.87,0003.48,0002.52
